Location: Cruquius
(52.3348°N, 4.6319°E)
Time: 19:17:10
(UTC+00:00)

Cosmos 1833 - Pass Details

Date: 12 May 2021
Orbit: 833 x 865 km, 70.9° (Epoch: 21 June)

Event Time Altitude Azimuth Distance (km) Brightness Sun altitude
Rises 22:45:30 0° 329° (NNW) 3,441 8.7 -18.4°
Reaches altitude 10° 22:47:59 10° 331° (NNW) 2,505 7.8 -18.5°
Maximum altitude 22:53:45 77° 57° (ENE) 890 4.3 -18.6°
Enters shadow 22:56:53 28° 140° (SE) 1,553 5.1 -18.7°
